Overview Statistics Trail Chart Weather Telemetry Raw packets
 

This is the latest recevied weather packets stored in our database for station/object KY0TEQ-13. If no packets are shown the sender has not sent any weather packets the latest 10 day(s).

<< 25 26 27 28 29 30 31 >>
Time Temp. Humidity Pressure Rain* Wind** Luminosity Snow
1788515696 12.78° C 62% 1306.9 hPa 0 mm - 0 W/m² -
1788515391 12.22° C 62% 1307.1 hPa 0 mm - 0 W/m² -
1788515086 12.22° C 63% 1306.9 hPa 0 mm - 0 W/m² -
1788514782 12.78° C 61% 1307.1 hPa 0 mm - 0 W/m² -
1788514477 13.33° C 60% 1306.9 hPa 0 mm - 0 W/m² -
1788514172 13.33° C 59% 1307.2 hPa 0 mm - 0 W/m² -
1788513869 13.33° C 60% 1307.2 hPa 0 mm - 0 W/m² -
1788513560 13.33° C 60% 1306.9 hPa 0 mm - 0 W/m² -
1788513255 13.89° C 59% 1307.1 hPa 0 mm - 0 W/m² -
1788512949 13.89° C 58% 1306.9 hPa 0 mm - 0 W/m² -
1788512645 13.33° C 59% 1307.2 hPa 0 mm - 0 W/m² -
1788512340 13.33° C 59% 1307.2 hPa 0 mm - 0 W/m² -
1788512035 13.33° C 59% 1307.1 hPa 0 mm - 0 W/m² -
1788511756 14.44° C 55% 1307.2 hPa 0 mm - 0 W/m² -
1788511431 14.44° C 55% 1307.2 hPa 0 mm - 0 W/m² -
1788511127 14.44° C 55% 1307.2 hPa 0 mm - 0 W/m² -
1788510823 13.33° C 59% 1307.1 hPa 0 mm - 0 W/m² -
1788510519 13.33° C 59% 1307.2 hPa 0 mm - 0 W/m² -
1788510213 15° C 53% 1307.2 hPa 0 mm - 0 W/m² -
1788509908 14.44° C 55% 1307.2 hPa 0 mm - 0 W/m² -
1788509604 14.44° C 55% 1307.1 hPa 0 mm - 0 W/m² -
1788509300 13.33° C 57% 1307.4 hPa 0 mm - 0 W/m² -
1788508996 13.33° C 60% 1307.4 hPa 0 mm - 0 W/m² -
1788508692 13.89° C 57% 1307.2 hPa 0 mm - 0 W/m² -
1788508392 13.89° C 56% 1307.6 hPa 0 mm - 0 W/m² -

* Rain latest hour (hover to see other rain measurements)
** Current wind speed in m/s (hover to see current wind gust speed)